Weather History for KGAO - June, 2013

Change the Weather History Date:

Saturday, June 29, 2013

  Actual Average (KAXO) Record (KAXO)
Temperature  
Mean Temperature 82 °F -  
Max Temperature 90 °F 82 °F 91 °F (2014)
Min Temperature 75 °F 79 °F 80 °F (1998)
Cooling Degree Days 17    
Growing Degree Days 32 (Base 50)    
Moisture  
Dew Point 76 °F    
Average Humidity 78    
Maximum Humidity 92    
Minimum Humidity 58    
Precipitation  
Precipitation 0.00 in - - ()
Sea Level Pressure  
Sea Level Pressure 29.79 in    
Wind  
Wind Speed 6 mph (SW)    
Max Wind Speed 18 mph    
Max Gust Speed 30 mph    
Visibility 10 miles    
Events Rain , Thunderstorm    
Averages and records for this station are not official NWS values.
T = Trace of Precipitation, MM = Missing Value Source: NWS Daily Summary

Daily Weather History Graph

Daily Weather History Graph

Search for Another Location

Airport or City:

Trip Planner

Search our weather history database for the weather conditions in past years. The results will help you decide how hot, cold, wet, or windy it might be!

Date:

Astronomy

Jun. 29, 2013 Rise Set
Actual Time 6:04 AM CDT 8:04 PM CDT
Civil Twilight 5:37 AM CDT 8:32 PM CDT
Nautical Twilight 5:04 AM CDT 9:04 PM CDT
Astronomical Twilight 4:28 AM CDT 9:40 PM CDT
Moon 12:05 AM CDT 12:41 PM CDT
Length of Visible Light 14h 55m
Length of Day
14h 00m
Waning Gibbous, 55% of the Moon is Illuminated
Jun 29
Waning Gibbous
Jun 29
Last Quarter
Jul 8
New
Jul 15
First Quarter
Jul 22
Full

Hourly Weather History & Observations

Time (CDT) Temp. Heat Index Dew Point Humidity Pressure Visibility Wind Dir Wind Speed Gust Speed Precip Events Conditions
12:15 AM 84.4 °F 95.0 °F 77.7 °F 80% 29.84 in 10.0 mi Calm Calm - N/A   Clear
12:35 AM 84.4 °F 95.4 °F 77.9 °F 81% 29.83 in 10.0 mi SW 6.9 mph - N/A   Clear
12:55 AM 84.7 °F 96.1 °F 77.9 °F 80% 29.83 in 10.0 mi SW 4.6 mph - N/A   Clear
1:15 AM 84.4 °F 95.4 °F 77.9 °F 81% 29.82 in 10.0 mi SW 3.5 mph - N/A   Clear
1:35 AM 83.8 °F 94.3 °F 77.7 °F 82% 29.83 in 10.0 mi SW 4.6 mph - N/A   Clear
1:55 AM 83.8 °F 93.5 °F 77.0 °F 80% 29.82 in 10.0 mi Calm Calm - N/A   Clear
2:15 AM 83.7 °F 93.4 °F 77.2 °F 81% 29.82 in 10.0 mi SW 3.5 mph - N/A   Clear
2:35 AM 83.3 °F 93.1 °F 77.5 °F 83% 29.82 in 10.0 mi Calm Calm - N/A   Clear
2:55 AM 82.8 °F 91.9 °F 77.4 °F 84% 29.82 in 10.0 mi North - - N/A   Clear
3:15 AM 83.3 °F 92.8 °F 77.4 °F 82% 29.81 in 10.0 mi North - - N/A   Clear
3:35 AM 82.4 °F 91.5 °F 77.9 °F 86% 29.80 in 10.0 mi SSW 6.9 mph - N/A   Clear
3:55 AM 83.1 °F 92.9 °F 77.9 °F 84% 29.80 in 10.0 mi SW 6.9 mph - N/A   Clear
4:15 AM 83.3 °F 93.1 °F 77.5 °F 83% 29.80 in 10.0 mi SW 4.6 mph - N/A   Clear
4:35 AM 83.3 °F 93.1 °F 77.5 °F 83% 29.80 in 10.0 mi SW 4.6 mph - N/A   Clear
4:55 AM 83.1 °F 92.9 °F 77.9 °F 84% 29.79 in 10.0 mi SW 5.8 mph - N/A   Clear
5:15 AM 83.5 °F 93.6 °F 77.9 °F 83% 29.80 in 7.0 mi WSW 6.9 mph - N/A   Clear
5:35 AM 83.5 °F 93.6 °F 77.9 °F 83% 29.80 in 10.0 mi WSW 4.6 mph - N/A   Scattered Clouds
5:55 AM 83.3 °F 93.5 °F 77.9 °F 84% 29.80 in 10.0 mi WSW 5.8 mph - N/A   Scattered Clouds
6:15 AM 83.5 °F 93.3 °F 77.4 °F 82% 29.81 in 10.0 mi WSW 6.9 mph - N/A   Scattered Clouds
6:35 AM 84.2 °F 94.9 °F 77.7 °F 81% 29.83 in 10.0 mi WSW 5.8 mph - N/A   Mostly Cloudy
6:55 AM 84.6 °F 95.1 °F 77.4 °F 79% 29.82 in 10.0 mi WSW 4.6 mph - N/A   Scattered Clouds
7:15 AM 84.7 °F 95.6 °F 77.5 °F 79% 29.82 in 10.0 mi WSW 8.1 mph - N/A   Clear
7:35 AM 85.1 °F 96.2 °F 77.4 °F 78% 29.82 in 10.0 mi WSW 9.2 mph - N/A   Scattered Clouds
7:55 AM 86.4 °F 98.3 °F 77.5 °F 75% 29.82 in 10.0 mi WSW 10.4 mph 16.1 mph N/A Thunderstorm Scattered Clouds
8:15 AM 87.6 °F 100.3 °F 77.5 °F 72% 29.84 in 10.0 mi WSW 18.4 mph 24.2 mph N/A   Scattered Clouds
8:35 AM 83.5 °F 89.1 °F 72.3 °F 69% 29.84 in 10.0 mi West 13.8 mph 29.9 mph N/A Thunderstorm Mostly Cloudy
8:55 AM 80.8 °F 85.2 °F 72.5 °F 76% 29.85 in 10.0 mi WNW 16.1 mph 21.9 mph N/A Thunderstorm Mostly Cloudy
9:15 AM 79.3 °F - 70.2 °F 73% 29.87 in 10.0 mi WNW 10.4 mph 19.6 mph N/A Thunderstorm Scattered Clouds
9:35 AM 78.8 °F - 70.0 °F 74% 29.87 in 10.0 mi WSW 10.4 mph - N/A Rain Light Rain
9:55 AM 76.1 °F - 70.9 °F 84% 29.86 in 10.0 mi WSW 8.1 mph 16.1 mph N/A Rain Light Rain
10:15 AM 75.6 °F - 71.8 °F 88% 29.86 in 10.0 mi West 8.1 mph - N/A Rain Light Rain
10:35 AM 76.1 °F - 72.1 °F 87% 29.86 in 10.0 mi West 13.8 mph - N/A Rain , Thunderstorm Light Thunderstorms and Rain
10:55 AM 75.6 °F - 71.8 °F 88% 29.85 in 10.0 mi West 10.4 mph - N/A Rain Light Rain
11:15 AM 75.6 °F - 71.8 °F 88% 29.83 in 10.0 mi West 6.9 mph - N/A Thunderstorm Unknown
11:35 AM 76.5 °F - 72.3 °F 87% 29.82 in 10.0 mi WSW 8.1 mph - N/A   Light Drizzle
11:55 AM 77.5 °F - 72.0 °F 83% 29.80 in 10.0 mi SW 10.4 mph 20.7 mph N/A   Clear
12:15 PM 79.5 °F - 72.9 °F 80% 29.79 in 10.0 mi WSW 13.8 mph 20.7 mph N/A   Clear
12:35 PM 81.7 °F 86.5 °F 72.3 °F 73% 29.79 in 10.0 mi SW 11.5 mph 17.3 mph N/A   Clear
12:55 PM 83.3 °F 88.4 °F 71.6 °F 68% 29.79 in 10.0 mi WSW 12.7 mph 18.4 mph N/A   Clear
1:15 PM 84.0 °F 89.6 °F 72.1 °F 67% 29.79 in 10.0 mi SW 12.7 mph 18.4 mph N/A   Clear
1:35 PM 85.5 °F 93.4 °F 74.1 °F 69% 29.78 in 10.0 mi WSW 12.7 mph 19.6 mph N/A   Clear
1:55 PM 85.1 °F 92.2 °F 73.4 °F 68% 29.79 in 10.0 mi WSW 11.5 mph 19.6 mph N/A   Clear
2:15 PM 86.0 °F 93.4 °F 73.6 °F 66% 29.79 in 10.0 mi SW 5.8 mph - N/A   Clear
2:35 PM 86.9 °F 93.7 °F 72.7 °F 62% 29.79 in 10.0 mi SW 6.9 mph - N/A   Clear
2:55 PM 89.1 °F 96.5 °F 72.7 °F 58% 29.78 in 10.0 mi SW 5.8 mph 16.1 mph N/A   Clear
3:15 PM 89.4 °F 97.8 °F 73.4 °F 59% 29.77 in 10.0 mi WSW 10.4 mph 16.1 mph N/A   Clear
3:35 PM 89.4 °F 97.3 °F 73.0 °F 58% 29.77 in 10.0 mi WSW 8.1 mph - N/A   Clear
3:55 PM 89.4 °F 97.3 °F 73.0 °F 58% 29.76 in 10.0 mi WSW 8.1 mph - N/A   Clear
4:15 PM 87.8 °F 96.6 °F 74.1 °F 64% 29.76 in 10.0 mi WSW 4.6 mph - N/A   Clear
4:35 PM 87.8 °F 98.6 °F 76.1 °F 68% 29.75 in 10.0 mi WSW 12.7 mph 18.4 mph N/A   Mostly Cloudy
4:55 PM 87.4 °F 98.2 °F 76.3 °F 69% 29.74 in 10.0 mi WSW 9.2 mph 17.3 mph N/A   Overcast
5:15 PM 87.4 °F 98.2 °F 76.3 °F 69% 29.73 in 10.0 mi WSW 12.7 mph 23.0 mph N/A   Overcast
5:35 PM 88.3 °F 99.5 °F 76.1 °F 67% 29.73 in 10.0 mi WSW 10.4 mph 23.0 mph N/A   Mostly Cloudy
5:55 PM 88.0 °F 98.0 °F 75.6 °F 66% 29.73 in 10.0 mi WSW 13.8 mph 19.6 mph N/A   Scattered Clouds
6:15 PM 86.0 °F 96.0 °F 76.1 °F 72% 29.74 in 10.0 mi West 9.2 mph - N/A   Scattered Clouds
6:35 PM 86.4 °F 97.8 °F 77.0 °F 74% 29.73 in 10.0 mi WSW 8.1 mph - N/A   Scattered Clouds
6:55 PM 86.0 °F 97.3 °F 77.4 °F 75% 29.73 in 10.0 mi SW 3.5 mph - N/A   Mostly Cloudy
7:15 PM 86.0 °F 97.8 °F 77.5 °F 76% 29.73 in 10.0 mi SW 5.8 mph - N/A   Mostly Cloudy
7:35 PM 85.3 °F 96.7 °F 77.5 °F 78% 29.73 in 10.0 mi SW 6.9 mph - N/A   Overcast
7:55 PM 84.7 °F 95.6 °F 77.7 °F 79% 29.74 in 10.0 mi WSW 5.8 mph - N/A   Mostly Cloudy
8:15 PM 84.7 °F 96.1 °F 77.9 °F 80% 29.74 in 10.0 mi WSW 5.8 mph - N/A   Mostly Cloudy
8:35 PM 84.7 °F 96.5 °F 78.3 °F 81% 29.75 in 10.0 mi WSW 4.6 mph - N/A   Mostly Cloudy
8:55 PM 83.7 °F 94.9 °F 78.8 °F 85% 29.75 in 10.0 mi North - - N/A   Scattered Clouds
9:15 PM 83.8 °F 95.5 °F 78.8 °F 85% 29.76 in 10.0 mi Calm Calm - N/A   Mostly Cloudy
9:35 PM 83.5 °F 95.1 °F 79.2 °F 87% 29.76 in 10.0 mi South 3.5 mph - N/A   Overcast
9:55 PM 83.5 °F 95.1 °F 79.2 °F 87% 29.76 in 10.0 mi SSW 4.6 mph - N/A   Overcast
10:15 PM 82.9 °F 93.8 °F 79.2 °F 88% 29.77 in 10.0 mi SW 3.5 mph - N/A   Scattered Clouds
10:35 PM 82.4 °F 92.4 °F 79.0 °F 89% 29.76 in 10.0 mi SSW 5.8 mph - N/A   Mostly Cloudy
10:55 PM 81.7 °F 90.8 °F 78.8 °F 91% 29.76 in 10.0 mi SSW 3.5 mph - N/A   Scattered Clouds
11:15 PM 81.1 °F 89.1 °F 78.4 °F 91% 29.76 in 10.0 mi SSW 3.5 mph - N/A   Scattered Clouds
11:35 PM 81.0 °F 88.8 °F 78.4 °F 92% 29.77 in 10.0 mi SSW 3.5 mph - N/A   Mostly Cloudy
11:55 PM 81.1 °F 89.1 °F 78.3 °F 91% 29.76 in 10.0 mi SSW 3.5 mph - N/A   Mostly Cloudy